EW3286 Weather Reports


Display with metric or nautical units.
time (UTC)temp
F
wind
direction
speed
MPH
gust
MPH
rain 1hr
in
rain 24hr
in
rain mn
in
humidity
%
barometer
mb
20260902150033 77 355 0.0 0.0 0.00 0.00 0.00 80 1010.2
20260902144528 76 18 0.0 0.0 0.00 0.00 0.00 81 1009.9
20260902143024 75 63 0.0 0.0 0.00 0.00 0.00 83 1009.8
20260902141521 74 63 0.0 0.0 0.00 0.00 0.00 84 1010.0
20260902140016 73 355 0.0 0.0 0.00 0.00 0.00 86 1010.0
20260902134511 72 5 0.0 0.0 0.00 0.00 0.00 87 1009.9
20260902133007 71 40 0.0 0.0 0.00 0.00 0.00 88 1010.0
20260902131502 71 34 0.0 0.0 0.00 0.00 0.00 89 1010.0
20260902130059 70 333 0.0 0.0 0.00 0.00 0.00 90 1009.9
20260902124555 69 333 0.0 0.0 0.00 0.00 0.00 92 1009.8
20260902123050 68 331 0.0 0.0 0.00 0.00 0.00 93 1009.6
20260902121550 68 323 0.0 0.0 0.00 0.00 0.00 93 1009.7
20260902120046 68 323 0.0 0.0 0.00 0.00 0.00 93 1009.7
20260902114613 68 303 0.0 0.0 0.00 0.00 0.00 93 1009.8
20260902113049 68 302 0.0 0.0 0.00 0.00 0.00 93 1009.8
20260902111548 68 300 0.0 0.0 0.00 0.00 0.00 94 1009.9
20260902110049 67 284 0.0 0.0 0.00 0.00 0.00 94 1009.9
20260902104544 67 284 0.0 0.0 0.00 0.00 0.00 93 1010.1
20260902103059 67 284 0.0 0.0 0.00 0.00 0.00 92 1010.3
20260902101543 67 299 0.0 0.0 0.00 0.00 0.00 93 1009.9
20260902100104 67 41 0.0 0.0 0.00 0.00 0.00 92 1009.6
20260902094539 67 46 0.0 0.0 0.00 0.00 0.00 91 1009.7
20260902093054 68 36 0.0 0.0 0.00 0.00 0.00 92 1009.8
20260902091538 68 315 0.0 0.0 0.00 0.00 0.00 92 1009.8
20260902090038 68 296 0.0 0.0 0.00 0.00 0.00 92 1009.6
20260902084536 68 198 0.0 0.0 0.00 0.00 0.00 90 1009.4
20260902083039 68 198 0.0 0.0 0.00 0.00 0.00 90 1009.8
20260902081533 69 198 0.0 0.0 0.00 0.00 0.00 88 1010.1
20260902080033 69 198 0.0 0.0 0.00 0.00 0.00 87 1010.5
20260902074538 70 182 0.0 0.0 0.00 0.00 0.00 85 1011.0
20260902073031 71 192 0.0 0.0 0.00 0.00 0.00 83 1011.4
20260902071529 70 146 0.0 0.0 0.00 0.00 0.00 83 1012.5
20260902070026 69 230 0.0 0.0 0.00 0.00 0.00 86 1009.1
20260902064526 69 76 0.0 0.0 0.00 0.00 0.00 86 1006.9
20260902063022 70 66 0.0 0.0 0.00 0.00 0.00 86 1006.5
20260902061522 69 63 0.0 0.0 0.00 0.00 0.00 89 1006.9
20260902060015 68 150 0.0 0.0 0.00 0.00 0.00 92 1009.0
20260902054513 68 128 0.0 0.0 0.00 0.00 0.00 93 1009.3
20260902053012 68 98 0.0 0.0 0.00 0.00 0.00 92 1009.3
20260902051512 68 207 0.0 0.0 0.00 0.00 0.00 92 1009.4
20260902050015 69 284 0.0 0.0 0.00 0.00 0.00 91 1009.3
20260902044505 69 180 0.0 0.0 0.00 0.00 0.00 92 1010.1
20260902043011 67 180 0.0 0.0 0.00 0.00 0.00 93 1010.4
20260902041505 64 152 0.0 0.0 0.00 0.00 0.00 93 1012.5
20260902040004 65 150 0.0 0.0 0.00 0.00 0.00 89 1014.1
20260902034502 74 184 0.0 0.0 0.00 0.00 0.00 89 1012.0
20260902033001 75 254 0.0 0.0 0.00 0.00 0.00 90 1011.4
20260902031502 75 288 0.0 0.0 0.00 0.00 0.00 89 1010.5
20260902030002 75 338 0.0 0.0 0.00 0.00 0.00 89 1010.3
20260902024623 76 288 0.0 0.0 0.00 0.00 0.00 87 1010.2
20260902023105 76 269 0.0 0.0 0.00 0.00 0.00 87 1010.7
20260902021605 76 267 0.0 0.0 0.00 0.00 0.00 86 1010.7
20260902020103 77 241 0.0 0.0 0.00 0.00 0.00 85 1010.0
20260902014558 77 276 0.0 0.0 0.00 0.00 0.00 85 1010.0
20260902013057 78 252 0.0 0.0 0.00 0.00 0.00 84 1009.6
20260902011606 78 238 0.0 0.0 0.00 0.00 0.00 84 1009.7
20260902010055 79 279 0.0 0.0 0.00 0.00 0.00 83 1009.9
20260902004553 80 286 0.0 0.0 0.00 0.00 0.00 82 1010.1
20260902003053 80 281 0.0 0.0 0.00 0.00 0.00 81 1009.8
20260902001604 81 276 0.0 0.0 0.00 0.00 0.00 80 1009.8
20260902000052 82 303 0.0 0.0 0.00 0.00 0.00 78 1009.9
20260901234602 83 317 0.0 0.0 0.00 0.00 0.00 77 1009.8
20260901233103 83 329 0.0 0.0 0.00 0.00 0.00 76 1010.1
20260901231551 83 36 0.0 0.0 0.00 0.00 0.00 75 1009.8
20260901230050 83 40 0.0 0.0 0.00 0.00 0.00 73 1009.8
20260901224552 83 324 0.0 0.0 0.00 0.00 0.00 73 1010.0
20260901223048 83 351 0.0 0.0 0.00 0.00 0.00 72 1010.2
20260901221548 84 14 0.0 0.0 0.00 0.00 0.00 71 1009.9
20260901220046 84 344 0.0 0.0 0.00 0.00 0.00 70 1009.9
20260901214543 84 350 0.0 0.0 0.00 0.00 0.00 71 1010.2
20260901213047 84 343 0.0 0.0 0.00 0.00 0.00 71 1010.2
20260901211534 84 315 0.0 0.0 0.00 0.00 0.00 71 1010.3
20260901210034 84 350 0.0 0.0 0.00 0.00 0.00 71 1010.3
20260901204532 84 298 0.0 0.0 0.00 0.00 0.00 71 1010.4
20260901203042 84 340 0.0 0.0 0.00 0.00 0.00 72 1010.4
20260901201529 84 350 0.0 0.0 0.00 0.00 0.00 72 1010.4
20260901200034 84 331 0.0 0.0 0.00 0.00 0.00 70 1010.7
20260901194524 84 18 0.0 0.0 0.00 0.00 0.00 70 1010.8
20260901193024 84 346 0.0 0.0 0.00 0.00 0.00 68 1010.8
20260901191521 84 345 0.0 0.0 0.00 0.00 0.00 68 1010.8
20260901190024 83 305 0.0 0.0 0.00 0.00 0.00 70 1010.8
20260901184515 83 19 0.0 0.0 0.00 0.00 0.00 73 1011.0
20260901183016 83 290 0.0 0.0 0.00 0.00 0.00 72 1011.1
20260901181517 82 331 0.0 0.0 0.00 0.00 0.00 72 1011.4
20260901180008 82 321 0.0 0.0 0.00 0.00 0.00 71 1011.7
20260901174505 82 280 0.0 0.0 0.00 0.00 0.00 71 1012.0
20260901173003 81 296 0.0 0.0 0.00 0.00 0.00 71 1012.2
20260901171502 81 294 0.0 0.0 0.00 0.00 0.00 70 1012.5
20260901170058 80 294 0.0 0.0 0.00 0.00 0.00 71 1012.6
20260901164602 80 312 0.0 0.0 0.00 0.00 0.00 69 1012.4
20260901163054 79 275 0.0 0.0 0.00 0.00 0.00 72 1012.5
20260901161552 79 288 0.0 0.0 0.00 0.00 0.00 72 1012.7
20260901160056 79 266 0.0 0.0 0.00 0.00 0.00 74 1012.4
20260901154552 78 267 0.0 0.0 0.00 0.00 0.00 74 1012.7
20260901153048 77 277 0.0 0.0 0.00 0.00 0.00 77 1012.0
20260901151541 77 318 0.0 0.0 0.00 0.00 0.00 79 1012.0